Location: Seattle
(47.6064°N, 122.3308°W)
Time: 01:15:12
(UTC-07:00)

STRAND 1 - Visible Passes

Search period start: 24 April 2024 00:00
Search period end: 04 May 2024 00:00
Orbit: 764 x 779 km, 98.4° (Epoch: 23 April)

Date Brightness Start Highest point End Pass type
(mag) Time Alt. Az. Time Alt. Az. Time Alt. Az.
24 Apr ? 04:54:39 10° E 04:57:09 14° NE 04:59:39 10° NNE visible
25 Apr ? 21:21:23 10° NNW 21:24:44 18° WNW 21:28:06 10° W visible
26 Apr ? 05:22:16 10° ESE 05:26:09 23° ENE 05:30:03 10° N visible
26 Apr ? 20:45:44 10° N 20:50:14 32° WNW 20:54:44 10° SW visible
27 Apr ? 04:49:39 10° ENE 04:51:45 13° NE 04:53:51 10° NNE visible
27 Apr ? 21:52:33 10° NW 21:53:40 11° NW 21:54:49 10° WNW visible
28 Apr ? 21:15:43 10° NNW 21:19:19 20° WNW 21:22:54 10° WSW visible
29 Apr ? 05:17:01 10° ESE 05:20:43 21° ENE 05:24:26 10° NNE visible
30 Apr ? 04:44:46 10° ENE 04:46:20 11° NE 04:47:55 10° NE visible
30 Apr ? 21:46:27 10° NNW 21:48:16 12° NW 21:50:05 10° WNW visible
01 May ? 21:10:04 10° NNW 21:13:52 21° WNW 21:17:40 10° WSW visible
02 May ? 05:11:47 10° ESE 05:15:16 19° ENE 05:18:46 10° NNE visible
03 May ? 04:40:10 10° ENE 04:40:55 10° NE 04:41:39 10° NE visible
03 May ? 21:40:32 10° NNW 21:42:50 13° NW 21:45:07 10° W visible
